When you browse on this site, cookies collect data to enhance your experience and personalize the content and advertising you see.
Visit our Privacy Policy to learn more. By continuing to use the site, you agree to this use of cookies and data.
  • In Österreich
  • Länderverzeichnis
  • Für 7 Tage
  • Wassertemperatur
  • Wetterkarte
  • News
  • Widgets
  • user-avatar
    Anmelden

    Stündliche Wetter Quito

    Heute, 5 Juni, Freitag

    Zeit Temperatur Niederschläge Wind Luftdruck Luftfeuchtigkeit
    00:00 +14°C° 0 mm 0 m/S 623 mmHg 62%
    01:00 +14°C° 0 mm 0 m/S 623 mmHg 62%
    02:00 +14°C° 0 mm 1 m/S 623 mmHg 65%
    03:00 +13°C° 0 mm 1 m/S 623 mmHg 68%
    04:00 +13°C° 0 mm 1 m/S 622 mmHg 71%
    05:00 +13°C° 0 mm 1 m/S 623 mmHg 69%
    06:00 +14°C° 0 mm 1 m/S 624 mmHg 67%
    07:00 +14°C° 0 mm 1 m/S 625 mmHg 65%
    08:00 +17°C° 0 mm 2 m/S 625 mmHg 55%
    09:00 +20°C° 0 mm 2 m/S 626 mmHg 46%
    10:00 +24°C° 0 mm 3 m/S 627 mmHg 36%
    11:00 +25°C° 0 mm 3 m/S 627 mmHg 34%
    12:00 +27°C° 0 mm 2 m/S 626 mmHg 31%
    13:00 +28°C° 0 mm 2 m/S 626 mmHg 28%
    14:00 +27°C° 0 mm 2 m/S 626 mmHg 29%
    15:00 +27°C° 0 mm 2 m/S 625 mmHg 29%
    16:00 +27°C° 0 mm 2 m/S 624 mmHg 29%
    17:00 +24°C° 0 mm 2 m/S 624 mmHg 35%
    18:00 +20°C° 0 mm 2 m/S 624 mmHg 40%
    19:00 +18°C° 0 mm 2 m/S 623 mmHg 46%
    20:00 +18°C° 0 mm 1 m/S 624 mmHg 45%
    21:00 +18°C° 0 mm 1 m/S 624 mmHg 45%
    22:00 +15°C° 0 mm 0 m/S 624 mmHg 44%
    23:00 +16°C° 0 mm 1 m/S 624 mmHg 46%

    Morgen, 6 Juni, Samstag

    Zeit Temperatur Niederschläge Wind Luftdruck Luftfeuchtigkeit
    00:00 +15°C° 0 mm 1 m/S 624 mmHg 48%
    01:00 +14°C° 0 mm 1 m/S 623 mmHg 50%
    02:00 +14°C° 0 mm 1 m/S 623 mmHg 52%
    03:00 +13°C° 0 mm 1 m/S 623 mmHg 55%
    04:00 +12°C° 0 mm 1 m/S 622 mmHg 58%
    05:00 +13°C° 0 mm 1 m/S 623 mmHg 57%
    06:00 +13°C° 0 mm 1 m/S 624 mmHg 56%
    07:00 +14°C° 0 mm 1 m/S 625 mmHg 55%
    08:00 +17°C° 0 mm 2 m/S 625 mmHg 47%
    09:00 +20°C° 0 mm 3 m/S 626 mmHg 39%
    10:00 +23°C° 0 mm 4 m/S 627 mmHg 31%
    11:00 +25°C° 0 mm 3 m/S 627 mmHg 30%
    12:00 +26°C° 0 mm 3 m/S 626 mmHg 28%
    13:00 +27°C° 0 mm 2 m/S 626 mmHg 26%
    14:00 +27°C° 0 mm 2 m/S 626 mmHg 26%
    15:00 +27°C° 0 mm 2 m/S 625 mmHg 26%
    16:00 +26°C° 0 mm 1 m/S 625 mmHg 26%
    17:00 +24°C° 0 mm 1 m/S 624 mmHg 30%
    18:00 +21°C° 0 mm 1 m/S 624 mmHg 34%
    19:00 +19°C° 0 mm 1 m/S 624 mmHg 39%
    20:00 +18°C° 0 mm 1 m/S 624 mmHg 40%
    21:00 +16°C° 0 mm 1 m/S 624 mmHg 40%
    22:00 +15°C° 0 mm 1 m/S 624 mmHg 41%
    23:00 +15°C° 0 mm 1 m/S 623 mmHg 44%

    übermorgen, 7 Juni, Sonntag

    Zeit Temperatur Niederschläge Wind Luftdruck Luftfeuchtigkeit
    00:00 +14°C° 0 mm 1 m/S 623 mmHg 47%
    01:00 +13°C° 0 mm 1 m/S 623 mmHg 50%
    02:00 +12°C° 0 mm 1 m/S 623 mmHg 52%
    03:00 +12°C° 0 mm 1 m/S 622 mmHg 53%
    04:00 +12°C° 0 mm 1 m/S 622 mmHg 54%
    05:00 +12°C° 0 mm 1 m/S 623 mmHg 54%
    06:00 +12°C° 0 mm 1 m/S 623 mmHg 53%
    07:00 +12°C° 0 mm 1 m/S 624 mmHg 53%
    08:00 +15°C° 0 mm 2 m/S 625 mmHg 45%
    09:00 +19°C° 0 mm 3 m/S 626 mmHg 38%
    10:00 +22°C° 0 mm 4 m/S 626 mmHg 30%
    11:00 +24°C° 0 mm 3 m/S 626 mmHg 28%
    12:00 +25°C° 0 mm 3 m/S 626 mmHg 26%
    13:00 +26°C° 0 mm 2 m/S 626 mmHg 24%
    14:00 +26°C° 0 mm 2 m/S 625 mmHg 24%
    15:00 +26°C° 0 mm 2 m/S 625 mmHg 24%
    16:00 +26°C° 0 mm 2 m/S 624 mmHg 24%
    17:00 +23°C° 0 mm 2 m/S 624 mmHg 28%
    18:00 +20°C° 0 mm 1 m/S 623 mmHg 33%
    19:00 +18°C° 0 mm 1 m/S 623 mmHg 38%
    20:00 +16°C° 0 mm 1 m/S 623 mmHg 38%
    21:00 +15°C° 0 mm 1 m/S 623 mmHg 39%
    22:00 +15°C° 0 mm 1 m/S 623 mmHg 40%
    23:00 +14°C° 0 mm 1 m/S 623 mmHg 42%

    8 Juni, Montag

    Zeit Temperatur Niederschläge Wind Luftdruck Luftfeuchtigkeit
    00:00 +13°C° 0 mm 1 m/S 622 mmHg 45%
    01:00 +13°C° 0 mm 1 m/S 622 mmHg 47%
    02:00 +12°C° 0 mm 1 m/S 622 mmHg 49%
    03:00 +11°C° 0 mm 1 m/S 622 mmHg 50%
    04:00 +11°C° 0 mm 1 m/S 621 mmHg 52%
    05:00 +11°C° 0 mm 1 m/S 622 mmHg 52%
    06:00 +12°C° 0 mm 1 m/S 622 mmHg 53%
    07:00 +12°C° 0 mm 1 m/S 623 mmHg 53%
    08:00 +15°C° 0 mm 2 m/S 624 mmHg 46%
    09:00 +18°C° 0 mm 2 m/S 625 mmHg 39%
    10:00 +22°C° 0 mm 3 m/S 625 mmHg 32%
    11:00 +24°C° 0 mm 3 m/S 625 mmHg 29%
    12:00 +25°C° 0 mm 2 m/S 625 mmHg 26%
    13:00 +27°C° 0 mm 2 m/S 625 mmHg 23%
    14:00 +26°C° 0 mm 2 m/S 624 mmHg 23%
    15:00 +26°C° 0 mm 2 m/S 624 mmHg 23%
    16:00 +26°C° 0 mm 2 m/S 623 mmHg 23%
    17:00 +23°C° 0 mm 2 m/S 623 mmHg 29%
    18:00 +19°C° 0 mm 2 m/S 623 mmHg 34%
    19:00 +16°C° 0 mm 1 m/S 622 mmHg 39%
    20:00 +15°C° 0 mm 1 m/S 622 mmHg 40%
    21:00 +15°C° 0 mm 1 m/S 622 mmHg 40%
    22:00 +13°C° 0 mm 0 m/S 622 mmHg 40%
    23:00 +14°C° 0 mm 1 m/S 622 mmHg 42%

    9 Juni, Dienstag

    Zeit Temperatur Niederschläge Wind Luftdruck Luftfeuchtigkeit
    00:00 +13°C° 0 mm 1 m/S 622 mmHg 44%
    01:00 +12°C° 0 mm 1 m/S 622 mmHg 46%
    02:00 +12°C° 0 mm 1 m/S 621 mmHg 49%
    03:00 +11°C° 0 mm 1 m/S 621 mmHg 51%
    04:00 +10°C° 0 mm 1 m/S 621 mmHg 54%
    05:00 +11°C° 0 mm 1 m/S 621 mmHg 54%
    06:00 +11°C° 0 mm 1 m/S 622 mmHg 54%
    07:00 +11°C° 0 mm 0 m/S 622 mmHg 54%
    08:00 +15°C° 0 mm 1 m/S 623 mmHg 46%
    09:00 +19°C° 0 mm 2 m/S 624 mmHg 39%
    10:00 +22°C° 0 mm 3 m/S 625 mmHg 31%
    11:00 +24°C° 0 mm 3 m/S 625 mmHg 29%
    12:00 +25°C° 0 mm 2 m/S 625 mmHg 26%
    13:00 +27°C° 0 mm 2 m/S 624 mmHg 23%
    14:00 +26°C° 0 mm 2 m/S 624 mmHg 23%
    15:00 +26°C° 0 mm 2 m/S 623 mmHg 24%
    16:00 +26°C° 0 mm 2 m/S 623 mmHg 24%
    17:00 +23°C° 0 mm 2 m/S 622 mmHg 28%
    18:00 +20°C° 0 mm 1 m/S 622 mmHg 33%
    19:00 +16°C° 0 mm 1 m/S 621 mmHg 38%
    20:00 +16°C° 0 mm 1 m/S 622 mmHg 37%
    21:00 +15°C° 0 mm 1 m/S 622 mmHg 37%
    22:00 +14°C° 0 mm 0 m/S 622 mmHg 37%
    23:00 +13°C° 0 mm 0 m/S 622 mmHg 40%

    10 Juni, Mittwoch

    Zeit Temperatur Niederschläge Wind Luftdruck Luftfeuchtigkeit
    00:00 +12°C° 0 mm 0 m/S 622 mmHg 42%
    01:00 +12°C° 0 mm 0 m/S 621 mmHg 44%
    02:00 +11°C° 0 mm 0 m/S 621 mmHg 47%
    03:00 +10°C° 0 mm 0 m/S 621 mmHg 50%
    04:00 +10°C° 0 mm 0 m/S 621 mmHg 52%
    05:00 +10°C° 0 mm 0 m/S 622 mmHg 53%
    06:00 +11°C° 0 mm 0 m/S 622 mmHg 53%
    07:00 +11°C° 0 mm 0 m/S 623 mmHg 53%
    08:00 +16°C° 0 mm 1 m/S 624 mmHg 45%
    09:00 +19°C° 0 mm 2 m/S 625 mmHg 37%
    10:00 +24°C° 0 mm 3 m/S 626 mmHg 29%
    11:00 +25°C° 0 mm 2 m/S 625 mmHg 27%
    12:00 +26°C° 0 mm 2 m/S 625 mmHg 25%
    13:00 +27°C° 0 mm 2 m/S 624 mmHg 23%
    14:00 +27°C° 0 mm 2 m/S 624 mmHg 23%
    15:00 +26°C° 0 mm 2 m/S 623 mmHg 23%
    16:00 +26°C° 0 mm 2 m/S 623 mmHg 24%
    17:00 +23°C° 0 mm 2 m/S 622 mmHg 29%
    18:00 +19°C° 0 mm 2 m/S 622 mmHg 33%
    19:00 +18°C° 0 mm 1 m/S 621 mmHg 38%
    20:00 +16°C° 0 mm 1 m/S 621 mmHg 38%
    21:00 +16°C° 0 mm 1 m/S 622 mmHg 38%
    22:00 +14°C° 0 mm 0 m/S 622 mmHg 37%
    23:00 +13°C° 0 mm 0 m/S 621 mmHg 39%
    Mehr zeigen